When you browse on this site, cookies collect data to enhance your experience and personalize the content and advertising you see.
Visit our Privacy Policy to learn more. By continuing to use the site, you agree to this use of cookies and data.
  • In France
  • List of Countries
  • For 7 days
  • Water Temperature
  • Weather Map
  • Weather Widgets
  • user-avatar
    Login

    Hourly Weather Nyala

    Today, 19 August, Monday

    Time Temperature Precipitation Wind Pressure Humidity
    00:00 +26°C° 1.9 mm 3 mps 697 mmHg 78%
    01:00 +26°C° 1.9 mm 4 mps 697 mmHg 79%
    02:00 +26°C° 0 mm 5 mps 697 mmHg 80%
    03:00 +25°C° 1.1 mm 5 mps 697 mmHg 81%
    04:00 +25°C° 1.1 mm 5 mps 697 mmHg 82%
    05:00 +25°C° 1.1 mm 5 mps 697 mmHg 82%
    06:00 +25°C° 0 mm 4 mps 698 mmHg 81%
    07:00 +25°C° 0 mm 4 mps 698 mmHg 81%
    08:00 +25°C° 0 mm 3 mps 698 mmHg 80%
    09:00 +26°C° 0 mm 4 mps 699 mmHg 74%
    10:00 +28°C° 0 mm 4 mps 699 mmHg 68%
    11:00 +29°C° 0 mm 4 mps 700 mmHg 62%
    12:00 +30°C° 0.1 mm 4 mps 699 mmHg 59%
    13:00 +30°C° 0.1 mm 3 mps 698 mmHg 56%
    14:00 +31°C° 0.1 mm 3 mps 697 mmHg 53%
    15:00 +31°C° 0 mm 3 mps 697 mmHg 54%
    16:00 +31°C° 0 mm 3 mps 697 mmHg 54%
    17:00 +31°C° 0 mm 3 mps 696 mmHg 55%
    18:00 +30°C° 0 mm 3 mps 696 mmHg 61%
    19:00 +29°C° 0 mm 3 mps 697 mmHg 66%
    20:00 +28°C° 0 mm 3 mps 697 mmHg 71%
    21:00 +27°C° 0.4 mm 3 mps 697 mmHg 74%
    22:00 +27°C° 0.4 mm 3 mps 698 mmHg 76%
    23:00 +26°C° 0.4 mm 3 mps 698 mmHg 78%

    Tomorrow, 20 August, Tuesday

    Time Temperature Precipitation Wind Pressure Humidity
    00:00 +26°C° 0.4 mm 3 mps 698 mmHg 79%
    01:00 +26°C° 0.4 mm 3 mps 698 mmHg 81%
    02:00 +26°C° 0.4 mm 3 mps 697 mmHg 82%
    03:00 +26°C° 0.2 mm 3 mps 697 mmHg 81%
    04:00 +25°C° 0.2 mm 3 mps 697 mmHg 80%
    05:00 +25°C° 0.2 mm 3 mps 698 mmHg 80%
    06:00 +26°C° 0 mm 4 mps 698 mmHg 78%
    07:00 +26°C° 0 mm 4 mps 698 mmHg 76%
    08:00 +26°C° 0 mm 5 mps 699 mmHg 74%
    09:00 +28°C° 0 mm 5 mps 699 mmHg 68%
    10:00 +29°C° 0 mm 5 mps 699 mmHg 63%
    11:00 +30°C° 0 mm 4 mps 700 mmHg 57%
    12:00 +32°C° 0 mm 4 mps 699 mmHg 54%
    13:00 +33°C° 0 mm 4 mps 698 mmHg 50%
    14:00 +34°C° 0 mm 4 mps 698 mmHg 47%
    15:00 +34°C° 0 mm 4 mps 697 mmHg 48%
    16:00 +34°C° 0 mm 4 mps 697 mmHg 49%
    17:00 +33°C° 0 mm 4 mps 697 mmHg 51%
    18:00 +31°C° 0 mm 3 mps 697 mmHg 56%
    19:00 +30°C° 0 mm 3 mps 697 mmHg 61%
    20:00 +29°C° 0 mm 3 mps 698 mmHg 66%
    21:00 +28°C° 0.4 mm 3 mps 698 mmHg 69%
    22:00 +27°C° 0.4 mm 3 mps 698 mmHg 72%
    23:00 +27°C° 0.4 mm 3 mps 698 mmHg 74%

    Day after tomorrow, 21 August, Wednesday

    Time Temperature Precipitation Wind Pressure Humidity
    00:00 +26°C° 0.1 mm 3 mps 698 mmHg 76%
    01:00 +26°C° 0.1 mm 3 mps 697 mmHg 77%
    02:00 +26°C° 0.1 mm 3 mps 697 mmHg 79%
    03:00 +25°C° 0.1 mm 3 mps 697 mmHg 81%
    04:00 +25°C° 0.1 mm 3 mps 698 mmHg 83%
    05:00 +25°C° 0.1 mm 3 mps 698 mmHg 85%
    06:00 +25°C° 0.2 mm 3 mps 698 mmHg 82%
    07:00 +26°C° 0.2 mm 4 mps 699 mmHg 80%
    08:00 +26°C° 0.2 mm 4 mps 699 mmHg 77%
    09:00 +28°C° 0.2 mm 5 mps 699 mmHg 70%
    10:00 +30°C° 0.2 mm 5 mps 700 mmHg 62%
    11:00 +33°C° 0.2 mm 5 mps 700 mmHg 55%
    12:00 +33°C° 0.1 mm 5 mps 699 mmHg 52%
    13:00 +34°C° 0.1 mm 4 mps 699 mmHg 48%
    14:00 +35°C° 0.1 mm 4 mps 698 mmHg 45%
    15:00 +34°C° 0.1 mm 3 mps 698 mmHg 48%
    16:00 +34°C° 0.1 mm 3 mps 697 mmHg 50%
    17:00 +33°C° 0.1 mm 3 mps 697 mmHg 52%
    18:00 +32°C° 0.4 mm 4 mps 697 mmHg 59%
    19:00 +29°C° 0.4 mm 4 mps 697 mmHg 65%
    20:00 +28°C° 0.4 mm 4 mps 698 mmHg 72%
    21:00 +27°C° 0.8 mm 4 mps 698 mmHg 72%
    22:00 +26°C° 0.8 mm 3 mps 698 mmHg 73%
    23:00 +25°C° 0.8 mm 2 mps 699 mmHg 74%

    22 August, Thursday

    Time Temperature Precipitation Wind Pressure Humidity
    00:00 +25°C° 0.7 mm 3 mps 698 mmHg 76%
    01:00 +25°C° 0.7 mm 3 mps 698 mmHg 78%
    02:00 +24°C° 0.7 mm 3 mps 698 mmHg 81%
    03:00 +24°C° 0.1 mm 3 mps 698 mmHg 81%
    04:00 +24°C° 0.1 mm 3 mps 698 mmHg 82%
    05:00 +24°C° 0.1 mm 3 mps 698 mmHg 83%
    06:00 +25°C° 0 mm 3 mps 699 mmHg 81%
    07:00 +25°C° 0 mm 3 mps 699 mmHg 79%
    08:00 +26°C° 0 mm 3 mps 699 mmHg 76%
    09:00 +28°C° 0 mm 3 mps 699 mmHg 69%
    10:00 +29°C° 0 mm 3 mps 700 mmHg 62%
    11:00 +31°C° 0 mm 3 mps 700 mmHg 54%
    12:00 +33°C° 0 mm 3 mps 699 mmHg 51%
    13:00 +33°C° 0 mm 3 mps 699 mmHg 48%
    14:00 +34°C° 0 mm 3 mps 698 mmHg 45%
    15:00 +34°C° 0 mm 3 mps 698 mmHg 45%
    16:00 +34°C° 0 mm 3 mps 697 mmHg 46%
    17:00 +34°C° 0 mm 4 mps 697 mmHg 47%
    18:00 +32°C° 0 mm 4 mps 697 mmHg 54%
    19:00 +30°C° 0 mm 4 mps 697 mmHg 61%
    20:00 +28°C° 0 mm 4 mps 697 mmHg 68%
    21:00 +28°C° 0.3 mm 4 mps 698 mmHg 71%
    22:00 +27°C° 0.3 mm 4 mps 698 mmHg 74%
    23:00 +26°C° 0.3 mm 4 mps 698 mmHg 77%

    23 August, Friday

    Time Temperature Precipitation Wind Pressure Humidity
    00:00 +26°C° 0.2 mm 4 mps 698 mmHg 78%
    01:00 +26°C° 0.2 mm 4 mps 698 mmHg 80%
    02:00 +25°C° 0.2 mm 4 mps 698 mmHg 82%
    03:00 +25°C° 3.2 mm 4 mps 698 mmHg 83%
    04:00 +25°C° 3.2 mm 4 mps 698 mmHg 85%
    05:00 +23°C° 3.2 mm 4 mps 698 mmHg 87%
    06:00 +23°C° 1.8 mm 4 mps 698 mmHg 86%
    07:00 +24°C° 1.8 mm 3 mps 699 mmHg 86%
    08:00 +24°C° 1.8 mm 3 mps 699 mmHg 86%
    09:00 +26°C° 0 mm 3 mps 700 mmHg 78%
    10:00 +27°C° 0 mm 3 mps 700 mmHg 69%
    11:00 +29°C° 0 mm 3 mps 700 mmHg 61%
    12:00 +30°C° 0 mm 3 mps 699 mmHg 57%
    13:00 +31°C° 0 mm 2 mps 698 mmHg 53%
    14:00 +32°C° 0 mm 2 mps 698 mmHg 49%
    15:00 +32°C° 0 mm 2 mps 697 mmHg 48%
    16:00 +32°C° 0 mm 2 mps 697 mmHg 47%
    17:00 +32°C° 0 mm 2 mps 696 mmHg 46%
    18:00 +31°C° 0 mm 2 mps 697 mmHg 52%
    19:00 +29°C° 0 mm 2 mps 697 mmHg 57%
    20:00 +28°C° 0 mm 3 mps 697 mmHg 63%
    21:00 +27°C° 0 mm 3 mps 698 mmHg 66%
    22:00 +27°C° 0 mm 3 mps 698 mmHg 70%
    23:00 +26°C° 0 mm 3 mps 699 mmHg 73%

    24 August, Saturday

    Time Temperature Precipitation Wind Pressure Humidity
    00:00 +25°C° 0.5 mm 3 mps 698 mmHg 78%
    01:00 +23°C° 0.5 mm 4 mps 698 mmHg 83%
    02:00 +23°C° 0.5 mm 4 mps 698 mmHg 88%
    03:00 +24°C° 0.5 mm 3 mps 698 mmHg 88%
    04:00 +24°C° 0.5 mm 3 mps 698 mmHg 89%
    05:00 +24°C° 0.5 mm 2 mps 698 mmHg 89%
    06:00 +24°C° 0 mm 3 mps 698 mmHg 87%
    07:00 +25°C° 0 mm 4 mps 698 mmHg 84%
    08:00 +25°C° 0 mm 4 mps 699 mmHg 81%
    09:00 +27°C° 0 mm 5 mps 699 mmHg 75%
    10:00 +28°C° 0 mm 5 mps 699 mmHg 69%
    11:00 +29°C° 0 mm 6 mps 700 mmHg 63%
    12:00 +30°C° 0.3 mm 5 mps 699 mmHg 61%
    13:00 +30°C° 0.3 mm 5 mps 699 mmHg 58%
    14:00 +32°C° 0.3 mm 5 mps 698 mmHg 56%
    15:00 +30°C° 0.8 mm 5 mps 698 mmHg 59%
    16:00 +30°C° 0.8 mm 5 mps 697 mmHg 61%
    17:00 +29°C° 0.8 mm 5 mps 697 mmHg 64%
    18:00 +28°C° 2.4 mm 5 mps 697 mmHg 69%
    19:00 +27°C° 2.4 mm 4 mps 698 mmHg 74%
    20:00 +26°C° 2.4 mm 4 mps 698 mmHg 79%
    21:00 +25°C° 0 mm 5 mps 698 mmHg 80%
    22:00 +25°C° 0 mm 5 mps 698 mmHg 81%
    23:00 +23°C° 0 mm 5 mps 699 mmHg 81%
    Show more